Terminal Aerodrome Forecast
Issued by NWS North Platte, NE

Home | Current Version | Previous Version | Text Only | Print | Product List | Glossary Off
Versions: 1 2 3 4 5 6 7 8 9 10 11 12 13 14

000
FTUS43 KLBF 251700
TAFVTN
TAF
KVTN 251738Z 2518/2618 09010KT P6SM SCT015 OVC025
      TEMPO 2518/2520 BKN015
     FM252200 13009KT P6SM SCT025 BKN035
     FM260100 12010KT P6SM BKN025
     FM260500 13010KT 5SM BR SCT005 OVC015
     FM260800 VRB06KT 3SM BR OVC005
     FM261400 12012KT P6SM OVC015=

USA.gov is the U.S. government's official web portal to all federal, state and local government web resources and services.